Aérodrome :
LOGIN :

S'inscrire | Disclaimer

   EN    FR    IT 

 










Légende :    VFR   VFR Marginal   IFR   IFR Intensif   IFR Très Intensif
Visi : 
Plafond : 
>= 8 km
>= 3000ft
5 à 8 km
1000 à 3000 ft
1500m à 5 km
500 à 1000 ft
800 à 1500m
200 à 500 ft
< 800m
< 200 ft
Symboles :   Orages  Brouillard  Fortes neiges  Fortes précipitations  Vent > 20 kt
SIGMETs :   Divers  Orages  Givrage  Turbulence  Onde Orograph.  Cendres Volcan.







- Altitude de l'aérodrome : 291 ft
- Code IATA : ORY
- Voir les cartes d'approche


LFPO - Paris-Orly

DERNIER METAR :
  • 232100Z 19003KT CAVOK 16/11 Q0996 NOSIG

METARs EXPIRÉS :
  • 232030Z 19003KT CAVOK 16/11 Q0996 NOSIG
  • 232000Z 18004KT CAVOK 17/11 Q0996 NOSIG
  • 231930Z 19004KT CAVOK 17/11 Q0996 NOSIG
  • 231900Z 19006KT CAVOK 17/11 Q0995 NOSIG

TAF TAF LFPO
Valide du 23 à 18h jusqu'au 25 à 00h UTC


231700Z 2318/2424 VRB05KT CAVOK
PROB40
TEMPO 2318/2323 21010KT -SHRA SCT080TCU
BECMG 2323/2402 16010KT
TEMPO 2408/2412 18015G25KT -RA SCT040 BKN080
PROB30
TEMPO 2408/2411 18020G30KT 4000 SHRA BKN030TCU
PROB40
TEMPO 2415/2418 SHRA SCT050TCU
PROB30
TEMPO 2415/2418 18015G30KT 4000 -TSRA BKN040CB
ATIS : +33 1 49 75 65 80
Pas de NOTAMs connus pour ce terrain.



MET'MAP, la Météo Aéronautique d'un coup d'oeil ! - Copyright ORBIFLY Décembre 2007 - Disclaimer

ORBIFLY MET'MAP TEAM :

Programmation & Développement : Alexandra Zaïnal
Conception & Développement : Baudouin d'Aumeries
Co-Programmation & Développement : Marc-Olivier Méhu
Soutien technique & logistique : Manuel Goepfert

Contact : metmap@orbifly.com




SOURCES & CREDITS :

   NOAA